Date String (YYYY-MM-DD hh:mm:ss) UTC,Instrument flags,absolute air pressure of the measurement (hPa),sample flow rate (lpm),inlet stack bypass flow (lpm),air temperature of the measurement (°C),ambient temperature measured by the external sensor (°C),aerosol sample conditioner tube jacket temperature (°C),OPC LED temperature (°C),internal box temperature (°C),relative humidity of the measurement (%),span deviation,mass concentration of particles derived from Lorenz-Mie calculation of OPC scattering (μg/m³),mass concentration of particles derived from Lorenz-Mie calculation of OPC scattering (μg/m³),mass concentration of particles derived from Lorenz-Mie calculation of OPC scattering (μg/m³)
DateTimeUTC,F1_M11,P_M11,Q1_M11,Q2_M11,T1_M11,T2_M11,T3_M11,T4_M11,T5_M11,U1_M11,ZSPAN_M11,X0_M11,X2_M11,X1_M11
2024-06-09 15:00:00,SystemResetWarning,0833.3,5.00,000.00,031.3,030.6,000.0,039.7,033.0,031.8,0000.3,0022.23,0015.10,0013.69
2024-06-09 15:01:00,SystemResetWarning,0833.2,5.00,000.00,031.3,030.6,000.0,039.7,033.0,031.3,0000.2,0022.24,0015.13,0013.69
2024-06-09 15:02:00,SystemResetWarning,0833.3,5.01,000.00,031.3,030.6,000.0,039.7,033.0,031.0,0000.3,0021.93,0015.16,0013.70
2024-06-09 15:03:00,SystemResetWarning,0833.3,5.01,000.00,031.3,030.6,000.0,039.7,033.0,031.1,-000.1,0021.66,0015.13,0013.68
2024-06-09 15:04:00,SystemResetWarning,0833.3,5.00,000.00,031.3,030.6,000.0,039.7,033.0,031.8,-000.1,0022.18,0015.07,0013.63
2024-06-09 15:05:00,SystemResetWarning,0833.3,4.99,000.00,031.4,030.6,000.0,039.7,033.0,031.8,0000.1,0021.47,0014.94,0013.56
2024-06-09 15:06:00,SystemResetWarning,0833.3,4.98,000.00,031.4,030.6,000.0,039.8,033.0,031.9,-000.0,0021.30,0014.83,0013.51
2024-06-09 15:07:00,SystemResetWarning,0833.3,5.00,000.00,031.4,030.6,000.0,039.8,033.0,031.4,-000.2,0021.66,0014.75,0013.44
2024-06-09 15:08:00,SystemResetWarning,0833.3,5.00,000.00,031.4,030.7,000.0,039.8,033.0,031.6,-000.3,0021.91,0014.67,0013.40
2024-06-09 15:09:00,SystemResetWarning,0833.3,5.00,000.00,031.4,030.7,000.0,039.8,033.0,031.6,-000.1,0022.47,0014.58,0013.35
2024-06-09 15:10:00,SystemResetWarning,0833.3,5.00,000.00,031.4,030.7,000.0,039.8,033.0,031.7,-000.2,0022.03,0014.45,0013.29
2024-06-09 15:11:00,SystemResetWarning,0833.3,5.01,000.00,031.4,030.7,000.0,039.8,033.0,031.6,-000.0,0021.28,0014.43,0013.24
2024-06-09 15:12:00,SystemResetWarning,0833.3,5.00,000.00,031.4,030.7,000.0,039.8,033.0,031.4,0000.2,0021.72,0014.36,0013.19
2024-06-09 15:13:00,SystemResetWarning,0833.3,5.00,000.00,031.4,030.7,000.0,039.8,033.1,031.4,0000.4,0022.26,0014.33,0013.17
2024-06-09 15:14:00,SystemResetWarning,0833.3,4.99,000.00,031.4,030.7,000.0,039.8,033.1,031.2,0000.4,0022.28,0014.30,0013.13
2024-06-09 15:15:00,SystemResetWarning,0833.3,5.00,000.00,031.4,030.7,000.0,039.8,033.1,031.1,0000.7,0021.60,0014.27,0013.12
2024-06-09 15:16:00,SystemResetWarning,0833.3,5.00,000.00,031.5,030.7,000.0,039.8,033.1,031.3,0000.5,0021.46,0014.31,0013.14
2024-06-09 15:17:00,SystemResetWarning,0833.3,5.01,000.00,031.5,030.7,000.0,039.9,033.1,031.0,0001.1,0021.47,0014.33,0013.15
2024-06-09 15:18:00,SystemResetWarning,0833.4,5.00,000.00,031.5,030.8,000.0,039.9,033.1,031.1,0001.3,0020.83,0014.31,0013.17
2024-06-09 15:19:00,SystemResetWarning,0833.3,5.01,000.00,031.5,030.8,000.0,039.9,033.1,031.0,0001.4,0020.83,0014.33,0013.16
2024-06-09 15:20:00,SystemResetWarning,0833.3,5.00,000.00,031.5,030.8,000.0,039.9,033.1,031.2,0001.1,0020.52,0014.39,0013.16
2024-06-09 15:21:00,SystemResetWarning,0833.4,4.99,000.00,031.5,030.8,000.0,039.9,033.1,031.6,0000.7,0020.28,0014.41,0013.16
2024-06-09 15:22:00,SystemResetWarning,0833.4,4.99,000.00,031.5,030.8,000.0,039.9,033.1,031.4,0000.4,0020.34,0014.43,0013.18
2024-06-09 15:23:00,SystemResetWarning,0833.4,5.00,000.00,031.5,030.8,000.0,039.9,033.1,031.1,0000.3,0020.18,0014.52,0013.20
2024-06-09 15:24:00,SystemResetWarning,0833.4,5.01,000.00,031.5,030.8,000.0,039.9,033.1,031.1,-000.2,0019.75,0014.54,0013.20
2024-06-09 15:25:00,SystemResetWarning,0833.4,5.01,000.00,031.5,030.8,000.0,039.9,033.1,031.3,-000.3,0019.76,0014.51,0013.18
2024-06-09 15:26:00,SystemResetWarning,0833.5,5.00,000.00,031.5,030.9,000.0,039.9,033.2,031.0,-000.2,0020.20,0014.51,0013.14
2024-06-09 15:27:00,SystemResetWarning,0833.5,5.00,000.00,031.6,030.9,000.0,039.9,033.2,030.9,-000.0,0021.07,0014.52,0013.11
2024-06-09 15:28:00,SystemResetWarning,0833.4,5.00,000.00,031.6,030.9,000.0,040.0,033.1,031.3,0000.1,0021.65,0014.48,0013.08
2024-06-09 15:29:00,SystemResetWarning,0833.4,5.00,000.00,031.6,030.9,000.0,040.0,033.2,030.9,-000.4,0022.17,0014.44,0013.02
2024-06-09 15:30:00,SystemResetWarning,0833.4,5.00,000.00,031.6,030.9,000.0,040.0,033.1,030.8,-000.6,0021.97,0014.46,0013.02
2024-06-09 15:31:00,SystemResetWarning,0833.4,5.01,000.00,031.6,030.9,000.0,040.0,033.2,030.9,-000.8,0021.83,0014.45,0013.05
2024-06-09 15:32:00,SystemResetWarning,0833.4,5.01,000.00,031.6,030.9,000.0,040.0,033.2,030.8,-000.3,0022.95,0014.54,0013.09
2024-06-09 15:33:00,SystemResetWarning,0833.4,5.01,000.00,031.6,030.9,000.0,040.0,033.2,030.5,0000.0,0023.12,0014.54,0013.10
2024-06-09 15:34:00,SystemResetWarning,0833.4,4.98,000.00,031.6,030.2,000.0,040.1,032.8,030.7,0000.4,0023.17,0014.50,0013.12
2024-06-09 15:35:00,SystemResetWarning,0833.3,5.00,000.00,031.2,028.0,000.0,040.1,031.7,031.7,0000.7,0022.86,0014.48,0013.09
2024-06-09 15:36:00,SystemResetWarning,0833.3,5.01,000.00,030.8,027.2,000.0,040.0,031.3,033.0,0000.8,0022.76,0014.43,0013.06
2024-06-09 15:37:00,SystemResetWarning,0833.2,5.00,000.00,030.6,027.5,000.0,039.8,031.3,034.1,0001.1,0022.40,0014.42,0013.07
2024-06-09 15:38:00,SystemResetWarning,0833.3,5.00,000.00,030.5,027.9,000.0,039.7,031.5,033.8,0001.1,0021.68,0014.47,0013.11
2024-06-09 15:39:00,SystemResetWarning,0833.3,5.01,000.00,030.5,028.3,000.0,039.5,031.8,034.0,0001.1,0021.37,0014.60,0013.22
2024-06-09 15:40:00,SystemResetWarning,0833.4,4.99,000.00,030.5,028.7,000.0,039.5,031.9,034.2,0001.4,0021.01,0014.69,0013.29
2024-06-09 15:41:00,SystemResetWarning,0833.4,5.00,000.00,030.5,029.0,000.0,039.4,032.0,034.1,0001.6,0021.34,0014.68,0013.29
2024-06-09 15:42:00,SystemResetWarning,0833.4,5.00,000.00,030.6,029.2,000.0,039.4,032.1,034.1,0001.7,0021.97,0014.71,0013.27
2024-06-09 15:43:00,SystemResetWarning,0833.4,5.00,000.00,030.6,029.4,000.0,039.3,032.2,033.9,0001.4,0020.77,0014.56,0013.16
2024-06-09 15:44:00,SystemResetWarning,0833.4,4.99,000.00,030.6,029.6,000.0,039.3,032.2,033.5,0001.3,0020.32,0014.43,0013.05
2024-06-09 15:45:00,SystemResetWarning,0833.4,4.99,000.00,030.7,029.7,000.0,039.3,032.3,033.2,0000.9,0020.20,0014.32,0012.95
2024-06-09 15:46:00,SystemResetWarning,0833.4,5.00,000.00,030.7,029.8,000.0,039.2,032.3,032.9,0000.9,0020.49,0014.23,0012.89
2024-06-09 15:47:00,SystemResetWarning,0833.4,5.00,000.00,030.7,029.9,000.0,039.2,032.4,032.8,0000.8,0020.28,0014.15,0012.85
2024-06-09 15:48:00,SystemResetWarning,0833.4,5.00,000.00,030.8,030.0,000.0,039.2,032.4,032.2,0000.5,0020.26,0014.12,0012.80
2024-06-09 15:49:00,SystemResetWarning,0833.4,5.00,000.00,030.8,030.1,000.0,039.3,032.5,031.9,0000.7,0020.35,0014.10,0012.75
2024-06-09 15:50:00,SystemResetWarning,0833.4,5.00,000.00,030.8,030.2,000.0,039.3,032.5,032.0,0000.8,0020.20,0014.02,0012.64
2024-06-09 15:51:00,SystemResetWarning,0833.4,5.00,000.00,030.9,030.2,000.0,039.3,032.6,031.9,0000.8,0020.22,0013.95,0012.55
2024-06-09 15:52:00,SystemResetWarning,0833.5,5.00,000.00,030.9,030.3,000.0,039.3,032.6,031.8,0000.7,0020.15,0013.91,0012.47
2024-06-09 15:53:00,SystemResetWarning,0833.4,5.00,000.00,030.9,030.3,000.0,039.3,032.6,031.8,0000.6,0019.65,0013.80,0012.37
2024-06-09 15:54:00,SystemResetWarning,0833.5,5.00,000.00,031.0,030.3,000.0,039.3,032.7,031.6,0000.7,0020.59,0013.67,0012.31
2024-06-09 15:55:00,SystemResetWarning,0833.4,4.99,000.00,030.9,029.1,000.0,039.4,032.0,031.5,0000.6,0021.26,0013.66,0012.29
2024-06-09 15:56:00,SystemResetWarning,0833.4,5.01,000.00,030.5,027.1,000.0,039.4,031.0,032.1,0000.8,0021.67,0013.65,0012.26
2024-06-09 15:57:00,SystemResetWarning,0833.4,5.00,000.00,030.1,026.7,000.0,039.3,030.8,033.3,0000.6,0021.12,0013.61,0012.23
2024-06-09 15:58:00,SystemResetWarning,0833.4,5.01,000.00,030.0,027.1,000.0,039.2,030.9,033.4,0000.6,0021.32,0013.54,0012.13
2024-06-09 15:59:00,SystemResetWarning,0833.4,5.00,000.00,030.0,027.6,000.0,039.0,031.2,033.8,0000.7,0021.62,0013.46,0012.08
